          25 12  21 54.08  -39 04.0   0.572  1.435    29.9 /  99   9.5  156  .16

          26 12  21 56.62  -39 08.3   0.581  1.439    29.6 /  97   9.5  152  .09

          27 12  21 59.15  -39 11.7   0.589  1.443    29.3 /  95   9.5  144  .04

          28 12  22 01.66  -39 14.2   0.597  1.447    29.1 /  93   9.6  134  .01

          29 12  22 04.16  -39 15.8   0.606  1.451    28.9 /  92   9.6  124  .00

          30 12  22 06.65  -39 16.6   0.615  1.455    28.7 /  90   9.7  113  .02

     Oct.  1 12  22 09.12  -39 16.5   0.623  1.459    28.6 /  88   9.7  102  .05

NAKANO

         **** Don't distribute anyone except personal use only ****

                (C) Copyright 2008 OAA/ComputingSection

write mail from CFAD0::NAKANO on 2008-08-21 06:27:49(JST).

   6P/d'Arrest

Epoch 2008 Aug. 2.0 TT = JDT 2454680.5  

T 2008 Aug. 14.95730 TT                                 Nakano

q   1.3535045            (2000.0)            P               Q

n   0.15079860     Peri.  178.11892     +0.73324096     +0.64358698

a   3.4957297      Node   138.93560     -0.62813985     +0.76468842

e   0.6128120      Incl.   19.51471     -0.26038054     -0.03236392

P   6.54

From 351 observations 1988-2008, mean residual 0".80.

   Nongravitational parameters A1 = +0.87 +/- 0.03, A2 = +0.1095 +/- 0.0005.

NAKANO

         **** Don't distribute anyone except personal use only ****

                (C) Copyright 2008 OAA/ComputingSection

write mail from CFAD0::NAKANO on 2008-05-30 05:17:08(JST).

 



◎6P/d'Arrestの軌道と予報位置    [From YC 2586]



ダレスト周期彗星  6P/d'Arrest

    2008年8月に回帰予定のこの彗星が2008年4月25日にマウナケアで再観測され

た.彗星の核光度は19.4等であった.彗星の観測位置は,予報軌道(NK 800R)より,

赤経方向で+70",赤緯方向で-14"のずれがあり,近日点通過時刻への補正値にして,

儺= -0.026日であった.彗星は,回帰時に13等級まで明るくなるだろう.

    OAA計算課では,1988年から2008年までに行なわれた349個の観測から次の軌道

を計算した.平均残差は0".80(http://www.oaa.gr.jp/~oaacs/nk/nk1625.htm).



   T = 2008 Aug. 14.95736 TT    Epoch = 2008 Aug. 2.0 TT

   ω = 178o.11895                  e =   0.6128121           A1 =  +0.871

   Ω = 138.93560    (2000.0)       a =   3.4957303 AU        A2 =  +0.10945

   i =  19.51471                   n゚=   0.15079856

   q =   1.3535046 AU              P =   6.54 年

                                                                               

2008/        α  (2000) δ      △      r    Daily motion  Elong. Phase    m1 

  0h TT     h  m       。  ,        AU      AU      ,     。     。      。      等

May  24   19 00.29  +12 07.3    0.832   1.643    17.3/ 58   125.6   30.1   16.2

     29   19 05.28  +12 53.3    0.781   1.614    15.6/ 60   127.6   29.9   16.0

June  3   19 09.92  +13 32.1    0.733   1.585    13.8/ 65   129.5   29.6   15.8

      8   19 14.22  +14 01.4    0.687   1.557    12.1/ 73   131.5   29.2   15.6

     13   19 18.21  +14 18.7    0.643   1.531    10.8/ 87   133.5   28.7   15.4

     18   19 21.92  +14 21.4    0.601   1.506    10.5/107   135.7   28.1   15.2

     23   19 25.39  +14 06.3    0.562   1.483    12.0/127   137.9   27.3   15.0

     28   19 28.68  +13 30.1    0.526   1.461    15.4/143   140.4   26.3   14.8

July  3   19 31.85  +12 28.8    0.492   1.440    20.3/153   143.1   25.1   14.6

      8   19 35.03  +10 58.6    0.461   1.422    26.4/158   146.0   23.6   14.5

     13   19 38.38  +08 56.0    0.433   1.406    33.3/161   149.2   21.7   14.3

     18   19 42.04  +06 18.5    0.408   1.391    40.6/162   152.6   19.6   14.1

     23   19 46.17  +03 04.9    0.388   1.379    47.9/163   156.1   17.4   14.0

     28   19 50.93  -00 43.7    0.371   1.369    54.4/162   159.4   15.1   13.9

Aug.  2   19 56.48  -05 02.5    0.360   1.362    59.3/161   161.8   13.4   13.8

      7   20 02.98  -09 42.6    0.355   1.357    61.9/159   162.6   12.9   13.7

     12   20 10.57  -14 31.6    0.355   1.354    62.1/157   161.3   13.9   13.7

     17   20 19.27  -19 15.6    0.360   1.354    59.8/153   158.3   16.1   13.8

     22   20 29.06  -23 41.7    0.372   1.356    55.8/149   154.3   18.9   13.8

     27   20 39.84  -27 39.6    0.389   1.361    50.7/144   149.9   21.8   14.0

Sept. 1   20 51.47  -31 02.7    0.410   1.368    45.5/138   145.7   24.6   14.1

      6   21 03.78  -33 48.1    0.436   1.377    40.6/130   141.7   27.0   14.2

     11   21 16.54  -35 56.3    0.467   1.389    36.4/122   138.0   29.0   14.4

     16   21 29.53  -37 29.7    0.500   1.403    33.1/113   134.7   30.6   14.6

     21   21 42.52  -38 31.7    0.537   1.419    30.7/104   131.7   31.9   14.8

     26   21 55.34  -39 06.1    0.577   1.437    29.2/ 95   129.0   32.9   15.0

Oct.  1   22 07.87  -39 16.5    0.619   1.457    28.4/ 87   126.5   33.6   15.2

      6   22 20.05  -39 06.4    0.664   1.478    28.0/ 80   124.1   34.0   15.4

     11   22 31.82  -38 39.2    0.711   1.502    28.0/ 74   122.0   34.3   15.6

     16   22 43.17  -37 57.8    0.761   1.526    28.1/ 69   119.9   34.5   15.8

     21   22 54.09  -37 04.8    0.813   1.552    28.3/ 64   117.9   34.5   16.0

     26   23 04.61  -36 02.1    0.868   1.580    28.5/ 61   115.9   34.5   16.2

     31   23 14.76  -34 51.6    0.925   1.608    28.8/ 59   113.9   34.4   16.4

Nov.  5   23 24.60  -33 34.8    0.984   1.638    29.1/ 57   112.0   34.2   16.6

     10   23 34.15  -32 13.2    1.045   1.668    29.3/ 55   110.0   33.9   16.8

     15   23 43.45  -30 48.0    1.109   1.699    29.4/ 54   108.0   33.6   17.0

     20   23 52.52  -29 20.1    1.175   1.731    29.5/ 53   106.0   33.3   17.1

     25   00 01.39  -27 50.3    1.243   1.764    29.6/ 52   103.9   32.9   17.3

     30   00 10.11  -26 19.2    1.313   1.797    29.6/ 52   101.8   32.5   17.5

Dec.  5   00 18.70  -24 47.6    1.386   1.830    29.6/ 52    99.7   32.0   17.7

     10   00 27.18  -23 16.0    1.460   1.865    29.5/ 52    97.5   31.6   17.9

     15   00 35.56  -21 44.7    1.536   1.899    29.4/ 52    95.3   31.1   18.0

     20   00 43.85  -20 14.3    1.614   1.934    29.3/ 53    93.0   30.5   18.2

     25   00 52.08  -18 44.9    1.693   1.969    29.2/ 53    90.7   30.0   18.4

     30   01 00.25  -17 16.7    1.774   2.004    29.1/ 54    88.4   29.4   18.5

Jan.  4   01 08.38  -15 50.1    1.857   2.039    28.9/ 54    86.0   28.7   18.7

      9   01 16.48  -14 25.3    1.940   2.075    28.8/ 55    83.6   28.1   18.8

     14   01 24.54  -13 02.4    2.025   2.110    28.6/ 56    81.1   27.4   19.0

     19   01 32.57  -11 41.5    2.111   2.146    28.4/ 56    78.6   26.7   19.1

     24   01 40.59  -10 22.7    2.197   2.182    28.2/ 57    76.1   26.0   19.2

     29   01 48.59  -09 06.1    2.284   2.217    28.0/ 58    73.6   25.2   19.4

Feb.  3   01 56.58  -07 51.8    2.371   2.253    27.8/ 59    71.1   24.4   19.5

      8   02 04.56  -06 39.8    2.458   2.289    27.5/ 60    68.5   23.6   19.6

     13   02 12.53  -05 30.3    2.545   2.324    27.3/ 61    65.9   22.8   19.8

     18   02 20.48  -04 23.2    2.631   2.360    27.1/ 62    63.3   22.0   19.9

     23   02 28.43  -03 18.5    2.718   2.395    26.9/ 62    60.7   21.1   20.0

     28   02 36.38  -02 16.3    2.803   2.430    26.6/ 63    58.1   20.3   20.1

Mar.  5   02 44.31  -01 16.6    2.888   2.465    26.4/ 64    55.5   19.4   20.2

                    m1 = 15.0 + 5 log △ +  7.5 log r





軌道と残差:



   6P/d'Arrest

Epoch 2008 Aug. 2.0 TT = JDT 2454680.5  

T 2008 Aug. 14.95736 TT                                 Nakano

q   1.3535046            (2000.0)            P               Q

n   0.15079856     Peri.  178.11895     +0.73324130     +0.64358659

a   3.4957303      Node   138.93560     -0.62813944     +0.76468876

e   0.6128121      Incl.   19.51471     -0.26038056     -0.03236379

P   6.54

From 349 observations 1988-2008, mean residual 0".80.

   Nongravitational parameters A1 = +0.87 +/- 0.03, A2 = +0.1095 +/- 0.0005.

                          

NAKANO

         **** Don't distribute anyone except personal use only ****

                (C) Copyright 2008 OAA/ComputingSection

write mail from CFAD0::NAKANO on 2008-05-28 04:02:46(JST).

 

   6P/d'Arrest

Epoch 2002 Feb. 15.0 TT = JDT 2452320.5  

T 2002 Feb. 3.59477 TT                                  Nakano

q   1.3527673            (2000.0)            P               Q

n   0.15092359     Peri.  178.11380     +0.73329259     +0.64360515

a   3.4937993      Node   138.94497     -0.62809664     +0.76468603

e   0.6128091      Incl.   19.49762     -0.26033939     -0.03205752

P   6.53

From 346 observations 1988-2001, mean residual 0".70.  Nongravitational

   parameters A1 = +0.71 +/- 0.02, A2 = +0.1159 +/- 0.0005.



NAKANO

         **** Don't distribute anyone except personal use only ****

                (C) Copyright 2001 OAA/ComputingSection

write mail from CFAD0::NAKANO on 2001-12-24 03:27:27(JST).

 



***** Residual for last observation = 21" from NK 692 (not MPC 34422)  *****



   6P/d'Arrest 

Epoch 2002 Feb. 15.0 TT = JDT 2452320.5  

T 2002 Feb. 3.59526 TT                                  Nakano

q   1.3527674            (2000.0)            P               Q

n   0.15092343     Peri.  178.11386     +0.73329338     +0.64360428

a   3.4938019      Node   138.94498     -0.62809571     +0.76468678

e   0.6128093      Incl.   19.49761     -0.26033938     -0.03205711

P   6.53

From 321 observations 1988-2001, mean residual 0".71.  Nongravitational

   parameters A1 = +0.69 +/- 0.02, A2 = +0.1160 +/- 0.0006.



NAKANO

         **** Don't distribute anyone except personal use only ****

                (C) Copyright 2001 OAA/ComputingSection

write mail from CFAD0::NAKANO on 2001-05-16 16:29:52(JST).

 



戻ります。